Weather History for Topeka Forbes, KS

Change the Weather History Date:

Friday, January 31, 2014

  Actual Average Record
Temperature  
Mean Temperature 24 °F -  
Max Temperature 28 °F 43 °F 71 °F (1989)
Min Temperature 21 °F 19 °F -14 °F (1979)
Degree Days  
Heating Degree Days 40    
Moisture  
Dew Point 15 °F    
Average Humidity 75    
Maximum Humidity 88    
Minimum Humidity 49    
Precipitation  
Precipitation 0.02 in - - ()
Sea Level Pressure  
Sea Level Pressure 29.99 in    
Wind  
Wind Speed 10 mph (NE)    
Max Wind Speed 15 mph    
Max Gust Speed 18 mph    
Visibility 7 miles    
Events Snow    
Averages and records for this station are not official NWS values.
T = Trace of Precipitation, MM = Missing Value Source: NWS Daily Summary

Daily Weather History Graph

Daily Weather History Graph

Search for Another Location

Airport:

Trip Planner

Search our weather history database for the weather conditions in past years. The results will help you decide how hot, cold, wet, or windy it might be!

Date:

Astronomy

Jan. 31, 2014 Rise Set
Actual Time 7:29 AM CST 5:42 PM CST
Civil Twilight 7:01 AM CST 6:11 PM CST
Nautical Twilight 6:29 AM CST 6:43 PM CST
Astronomical Twilight 5:58 AM CST 7:14 PM CST
Moon 7:41 AM CST (1/31) 7:07 PM CST (1/31)
Length of Visible Light 11h 09m
Length of Day
10h 13m
New Moon, 1% of the Moon is Illuminated
Jan 31
New Moon
Feb 6
First Quarter
Feb 14
Full
Feb 22
Last Quarter
Mar 1
New

Hourly Weather History & Observations

Time (CST) Temp. Windchill Dew Point Humidity Pressure Visibility Wind Dir Wind Speed Gust Speed Precip Events Conditions
12:53 AM 28.9 °F 19.8 °F 12.9 °F 51% 30.03 in 10.0 mi NNE 10.4 mph - N/A   Overcast
1:53 AM 27.0 °F 15.6 °F 12.9 °F 56% 30.01 in 10.0 mi NE 13.8 mph - N/A   Scattered Clouds
2:53 AM 26.1 °F 15.0 °F 10.9 °F 53% 30.02 in 10.0 mi NNE 12.7 mph - N/A   Overcast
3:53 AM 25.0 °F 14.8 °F 9.0 °F 51% 30.03 in 10.0 mi North 10.4 mph - N/A   Scattered Clouds
4:53 AM 25.0 °F 14.8 °F 8.1 °F 49% 30.02 in 10.0 mi NE 10.4 mph 18.4 mph N/A   Mostly Cloudy
5:53 AM 24.1 °F 13.1 °F 9.0 °F 53% 30.03 in 10.0 mi NE 11.5 mph - N/A   Overcast
6:53 AM 24.1 °F 13.7 °F 10.0 °F 55% 30.05 in 9.0 mi NE 10.4 mph - 0.00 in Snow Light Snow
7:53 AM 23.0 °F 10.1 °F 10.0 °F 58% 30.06 in 10.0 mi NE 15.0 mph - 0.00 in   Overcast
8:53 AM 21.9 °F 11.7 °F 12.0 °F 66% 30.08 in 10.0 mi NNE 9.2 mph - N/A   Overcast
9:53 AM 21.0 °F 9.3 °F 12.9 °F 71% 30.11 in 9.0 mi NNE 11.5 mph - 0.00 in   Overcast
10:53 AM 21.9 °F 11.0 °F 12.9 °F 68% 30.10 in 10.0 mi NE 10.4 mph - N/A   Overcast
11:53 AM 21.9 °F 10.4 °F 14.0 °F 72% 30.07 in 10.0 mi NNE 11.5 mph - 0.00 in   Overcast
12:53 PM 21.9 °F 10.4 °F 14.0 °F 72% 30.05 in 10.0 mi NNE 11.5 mph - N/A   Overcast
1:37 PM 23.0 °F 10.1 °F 15.1 °F 72% 29.99 in 10.0 mi NNE 15.0 mph - N/A   Overcast
1:53 PM 23.0 °F 11.1 °F 15.1 °F 72% 30.01 in 10.0 mi NNE 12.7 mph - N/A   Overcast
2:53 PM 23.0 °F 10.6 °F 15.1 °F 72% 30.01 in 10.0 mi NNE 13.8 mph - N/A   Overcast
3:53 PM 23.0 °F 13.9 °F 16.0 °F 74% 30.00 in 10.0 mi NE 8.1 mph - N/A   Overcast
4:32 PM 23.0 °F 13.9 °F 17.1 °F 78% 29.96 in 7.0 mi NE 8.1 mph - N/A   Overcast
4:53 PM 21.9 °F 13.4 °F 18.0 °F 85% 29.99 in 5.0 mi NE 6.9 mph - N/A   Overcast
5:04 PM 21.9 °F 13.4 °F 18.0 °F 85% 29.95 in 6.0 mi ENE 6.9 mph - N/A   Overcast
5:18 PM 21.9 °F 12.5 °F 18.0 °F 85% 29.95 in 9.0 mi ENE 8.1 mph - N/A   Overcast
5:29 PM 21.9 °F 13.4 °F 18.0 °F 85% 29.95 in 8.0 mi NE 6.9 mph - N/A   Overcast
5:53 PM 21.9 °F 14.5 °F 18.0 °F 85% 29.99 in 9.0 mi ENE 5.8 mph - N/A   Overcast
6:53 PM 21.0 °F 11.4 °F 18.0 °F 88% 29.98 in 4.0 mi NE 8.1 mph - N/A   Overcast
7:53 PM 21.0 °F 10.6 °F 18.0 °F 88% 29.99 in 6.0 mi ENE 9.2 mph - N/A   Overcast
8:33 PM 21.0 °F 12.4 °F 18.0 °F 88% 29.94 in 5.0 mi ENE 6.9 mph - N/A   Overcast
8:53 PM 21.0 °F 13.4 °F 18.0 °F 88% 29.98 in 4.0 mi NE 5.8 mph - N/A   Overcast
9:44 PM 21.0 °F 14.6 °F 18.0 °F 88% 29.91 in 2.5 mi NE 4.6 mph - N/A   Overcast
9:53 PM 21.0 °F 12.4 °F 18.0 °F 88% 29.98 in 2.5 mi NE 6.9 mph - N/A   Overcast
10:21 PM 21.0 °F 10.6 °F 18.0 °F 88% 29.92 in 1.5 mi North 9.2 mph - N/A   Overcast
10:53 PM 21.0 °F 11.4 °F 18.0 °F 88% 29.95 in 1.8 mi ENE 8.1 mph - N/A   Overcast
11:24 PM 21.0 °F 13.4 °F 18.0 °F 88% 29.90 in 2.5 mi NNE 5.8 mph - 0.00 in Snow Light Snow
11:47 PM 21.2 °F 12.6 °F 17.6 °F 86% 29.88 in 3.0 mi NNE 6.9 mph - 0.02 in Snow Light Snow
11:48 PM 21.0 °F 12.4 °F 18.0 °F 88% 29.93 in 3.0 mi NNE 6.9 mph - 0.02 in Snow Light Snow
11:52 PM 21.0 °F 13.4 °F 18.0 °F 88% 29.90 in 2.5 mi NNE 5.8 mph - 0.01 in Snow Light Snow